WXM80 ListenWXM80 Stop

You find our weather info also at:

UK Metoffice

WeatherCloud

Weather Underground

Northeastern Weather Network

AWEKAS

Citizen Weather Observer Program (CWOP)

HAMweather, WeatherForYou, PWS Weather


Weather Underground History page Text

Daily Summary for November 12, 2017 Units:  Both    English   Metric
« Previous Day
Next Day »
Daily Weekly Monthly Yearly Custom
  High: Low: Average:
Temperature: 49.4 °F /  9.7 °C 28.7 °F /  -1.8 °C 37.5 °F /  3.1 °C
Dew Point: 33.4 °F /  0.8 °C 24.6 °F /  -4.1 °C 29.7 °F /  -1.3 °C
Humidity: 91 % 51 % 75 %
Wind Speed: 4.3 mph /  6.9 km/h - 0.4 mph /  0.6 km/h
Wind Gust: 8.1 mph /  13 km/h - -
Wind:- - West
Pressure: 30.49 in /  1032.4 hPa 30.17 in /  1021.6 hPa -
Precipitation: 0.00 in /  0 mm    
Historical Graphs
 
 
Tabular Data for November 12, 2017
Time Temperature Dew Point Pressure Wind Wind Speed Wind Gust Humidity Rainfall Rate (Hourly)
00:04 29.9 °F /  -1.2 °C 25.1 °F /  -3.8 °C 30.49 in /  1032.4 hPa West 1.6 mph /  2.6 km/h 2.3 mph /  3.7 km/h 82 % 0.00 in /  0 mm
00:09 30.0 °F /  -1.1 °C 25.2 °F /  -3.8 °C 30.49 in /  1032.4 hPa West 0.6 mph /  1 km/h 3.5 mph /  5.6 km/h 82 % 0.00 in /  0 mm
00:14 30.1 °F /  -1.1 °C 25.3 °F /  -3.7 °C 30.49 in /  1032.4 hPa Calm     82 % 0.00 in /  0 mm
00:19 30.2 °F /  -1 °C 25.1 °F /  -3.8 °C 30.49 in /  1032.4 hPa Calm     81 % 0.00 in /  0 mm
00:24 30.3 °F /  -0.9 °C 25.2 °F /  -3.8 °C 30.48 in /  1032.1 hPa Calm     81 % 0.00 in /  0 mm
00:29 30.3 °F /  -0.9 °C 25.2 °F /  -3.8 °C 30.49 in /  1032.4 hPa Calm     81 % 0.00 in /  0 mm
00:34 30.3 °F /  -0.9 °C 25.2 °F /  -3.8 °C 30.49 in /  1032.4 hPa Calm     81 % 0.00 in /  0 mm
00:39 30.3 °F /  -0.9 °C 25.2 °F /  -3.8 °C 30.49 in /  1032.4 hPa Calm     81 % 0.00 in /  0 mm
00:44 30.2 °F /  -1 °C 25.1 °F /  -3.8 °C 30.49 in /  1032.4 hPa Calm     81 % 0.00 in /  0 mm
00:49 30.2 °F /  -1 °C 25.1 °F /  -3.8 °C 30.48 in /  1032.1 hPa West 0.1 mph /  0.2 km/h 1.2 mph /  1.9 km/h 81 % 0.00 in /  0 mm
00:54 30.1 °F /  -1.1 °C 25.0 °F /  -3.9 °C 30.48 in /  1032.1 hPa Calm     81 % 0.00 in /  0 mm
00:59 29.9 °F /  -1.2 °C 24.8 °F /  -4 °C 30.48 in /  1032.1 hPa West 0.9 mph /  1.4 km/h 2.3 mph /  3.7 km/h 81 % 0.00 in /  0 mm
01:04 29.8 °F /  -1.2 °C 25.0 °F /  -3.9 °C 30.48 in /  1032.1 hPa West 0.4 mph /  0.6 km/h 1.0 mph /  1.6 km/h 82 % 0.00 in /  0 mm
01:10 29.7 °F /  -1.3 °C 24.9 °F /  -3.9 °C 30.48 in /  1032.1 hPa Calm     82 % 0.00 in /  0 mm
01:15 29.6 °F /  -1.3 °C 24.8 °F /  -4 °C 30.47 in /  1031.7 hPa Calm     82 % 0.00 in /  0 mm
01:20 29.6 °F /  -1.3 °C 24.8 °F /  -4 °C 30.47 in /  1031.7 hPa West 0.2 mph /  0.3 km/h 1.2 mph /  1.9 km/h 82 % 0.00 in /  0 mm
01:25 29.4 °F /  -1.4 °C 24.9 °F /  -3.9 °C 30.47 in /  1031.7 hPa Calm     83 % 0.00 in /  0 mm
01:30 29.3 °F /  -1.5 °C 24.8 °F /  -4 °C 30.46 in /  1031.4 hPa Calm     83 % 0.00 in /  0 mm
01:35 29.3 °F /  -1.5 °C 24.8 °F /  -4 °C 30.47 in /  1031.7 hPa Calm   1.2 mph /  1.9 km/h 83 % 0.00 in /  0 mm
01:40 29.2 °F /  -1.6 °C 24.7 °F /  -4.1 °C 30.47 in /  1031.7 hPa Calm     83 % 0.00 in /  0 mm
01:45 29.1 °F /  -1.6 °C 24.6 °F /  -4.1 °C 30.47 in /  1031.7 hPa West 0.3 mph /  0.5 km/h 1.2 mph /  1.9 km/h 83 % 0.00 in /  0 mm
01:50 29.0 °F /  -1.7 °C 24.8 °F /  -4 °C 30.48 in /  1032.1 hPa West 1.3 mph /  2.1 km/h 2.3 mph /  3.7 km/h 84 % 0.00 in /  0 mm
01:55 28.9 °F /  -1.7 °C 24.7 °F /  -4.1 °C 30.48 in /  1032.1 hPa Calm     84 % 0.00 in /  0 mm
02:00 28.9 °F /  -1.7 °C 24.7 °F /  -4.1 °C 30.48 in /  1032.1 hPa West 0.6 mph /  1 km/h 1.2 mph /  1.9 km/h 84 % 0.00 in /  0 mm
02:05 28.8 °F /  -1.8 °C 24.6 °F /  -4.1 °C 30.48 in /  1032.1 hPa Calm     84 % 0.00 in /  0 mm
02:10 28.8 °F /  -1.8 °C 24.6 °F /  -4.1 °C 30.48 in /  1032.1 hPa Calm     84 % 0.00 in /  0 mm
02:15 28.8 °F /  -1.8 °C 24.9 °F /  -3.9 °C 30.48 in /  1032.1 hPa Calm     85 % 0.00 in /  0 mm
02:20 28.8 °F /  -1.8 °C 24.9 °F /  -3.9 °C 30.48 in /  1032.1 hPa Calm     85 % 0.00 in /  0 mm
02:25 28.8 °F /  -1.8 °C 24.9 °F /  -3.9 °C 30.48 in /  1032.1 hPa Calm   1.2 mph /  1.9 km/h 85 % 0.00 in /  0 mm
02:30 28.8 °F /  -1.8 °C 24.9 °F /  -3.9 °C 30.48 in /  1032.1 hPa Calm     85 % 0.00 in /  0 mm
02:35 28.8 °F /  -1.8 °C 24.9 °F /  -3.9 °C 30.48 in /  1032.1 hPa Calm     85 % 0.00 in /  0 mm
02:41 28.7 °F /  -1.8 °C 24.8 °F /  -4 °C 30.48 in /  1032.1 hPa Calm   1.0 mph /  1.6 km/h 85 % 0.00 in /  0 mm
02:46 28.7 °F /  -1.8 °C 24.8 °F /  -4 °C 30.48 in /  1032.1 hPa Calm   1.0 mph /  1.6 km/h 85 % 0.00 in /  0 mm
02:51 28.7 °F /  -1.8 °C 24.8 °F /  -4 °C 30.48 in /  1032.1 hPa Calm     85 % 0.00 in /  0 mm
02:56 28.7 °F /  -1.8 °C 25.0 °F /  -3.9 °C 30.47 in /  1031.7 hPa Calm     86 % 0.00 in /  0 mm
03:01 28.7 °F /  -1.8 °C 24.8 °F /  -4 °C 30.47 in /  1031.7 hPa Calm     85 % 0.00 in /  0 mm
03:06 28.7 °F /  -1.8 °C 24.8 °F /  -4 °C 30.47 in /  1031.7 hPa Calm     85 % 0.00 in /  0 mm
03:11 28.7 °F /  -1.8 °C 24.8 °F /  -4 °C 30.47 in /  1031.7 hPa Calm     85 % 0.00 in /  0 mm
03:16 28.7 °F /  -1.8 °C 24.8 °F /  -4 °C 30.47 in /  1031.7 hPa Calm     85 % 0.00 in /  0 mm
03:21 28.7 °F /  -1.8 °C 25.0 °F /  -3.9 °C 30.47 in /  1031.7 hPa Calm     86 % 0.00 in /  0 mm
03:26 28.7 °F /  -1.8 °C 25.0 °F /  -3.9 °C 30.47 in /  1031.7 hPa Calm     86 % 0.00 in /  0 mm
03:31 28.7 °F /  -1.8 °C 25.0 °F /  -3.9 °C 30.48 in /  1032.1 hPa Calm   1.2 mph /  1.9 km/h 86 % 0.00 in /  0 mm
03:36 28.7 °F /  -1.8 °C 25.0 °F /  -3.9 °C 30.47 in /  1031.7 hPa Calm     86 % 0.00 in /  0 mm
03:41 28.7 °F /  -1.8 °C 25.0 °F /  -3.9 °C 30.47 in /  1031.7 hPa Calm     86 % 0.00 in /  0 mm
03:46 28.7 °F /  -1.8 °C 25.0 °F /  -3.9 °C 30.48 in /  1032.1 hPa Calm     86 % 0.00 in /  0 mm
03:51 28.8 °F /  -1.8 °C 25.4 °F /  -3.7 °C 30.48 in /  1032.1 hPa West 0.1 mph /  0.2 km/h   87 % 0.00 in /  0 mm
03:56 28.8 °F /  -1.8 °C 25.4 °F /  -3.7 °C 30.48 in /  1032.1 hPa Calm     87 % 0.00 in /  0 mm
04:01 28.8 °F /  -1.8 °C 25.4 °F /  -3.7 °C 30.48 in /  1032.1 hPa Calm     87 % 0.00 in /  0 mm
04:06 28.9 °F /  -1.7 °C 25.5 °F /  -3.6 °C 30.47 in /  1031.7 hPa Calm     87 % 0.00 in /  0 mm
04:11 28.9 °F /  -1.7 °C 25.5 °F /  -3.6 °C 30.47 in /  1031.7 hPa Calm     87 % 0.00 in /  0 mm
04:16 28.9 °F /  -1.7 °C 25.5 °F /  -3.6 °C 30.47 in /  1031.7 hPa Calm     87 % 0.00 in /  0 mm
04:21 28.9 °F /  -1.7 °C 25.5 °F /  -3.6 °C 30.48 in /  1032.1 hPa Calm     87 % 0.00 in /  0 mm
04:25 29.0 °F /  -1.7 °C 25.6 °F /  -3.6 °C 30.47 in /  1031.7 hPa Calm     87 % 0.00 in /  0 mm
04:30 29.0 °F /  -1.7 °C 25.6 °F /  -3.6 °C 30.48 in /  1032.1 hPa Calm     87 % 0.00 in /  0 mm
04:35 29.0 °F /  -1.7 °C 25.9 °F /  -3.4 °C 30.47 in /  1031.7 hPa Calm     88 % 0.00 in /  0 mm
04:40 29.0 °F /  -1.7 °C 25.9 °F /  -3.4 °C 30.48 in /  1032.1 hPa Calm     88 % 0.00 in /  0 mm
04:51 29.1 °F /  -1.6 °C 26.0 °F /  -3.3 °C 30.48 in /  1032.1 hPa Calm     88 % 0.00 in /  0 mm
04:56 29.1 °F /  -1.6 °C 26.0 °F /  -3.3 °C 30.48 in /  1032.1 hPa Calm   1.0 mph /  1.6 km/h 88 % 0.00 in /  0 mm
05:01 29.2 °F /  -1.6 °C 26.1 °F /  -3.3 °C 30.48 in /  1032.1 hPa Calm     88 % 0.00 in /  0 mm
05:06 29.2 °F /  -1.6 °C 26.1 °F /  -3.3 °C 30.48 in /  1032.1 hPa West 0.2 mph /  0.3 km/h 1.2 mph /  1.9 km/h 88 % 0.00 in /  0 mm
05:11 29.3 °F /  -1.5 °C 25.9 °F /  -3.4 °C 30.48 in /  1032.1 hPa Calm   1.2 mph /  1.9 km/h 87 % 0.00 in /  0 mm
05:16 29.3 °F /  -1.5 °C 25.9 °F /  -3.4 °C 30.48 in /  1032.1 hPa West 0.3 mph /  0.5 km/h 1.2 mph /  1.9 km/h 87 % 0.00 in /  0 mm
05:21 29.4 °F /  -1.4 °C 26.0 °F /  -3.3 °C 30.47 in /  1031.7 hPa Calm     87 % 0.00 in /  0 mm
05:26 29.5 °F /  -1.4 °C 26.4 °F /  -3.1 °C 30.47 in /  1031.7 hPa Calm   2.3 mph /  3.7 km/h 88 % 0.00 in /  0 mm
05:31 29.6 °F /  -1.3 °C 26.5 °F /  -3.1 °C 30.47 in /  1031.7 hPa Calm   1.2 mph /  1.9 km/h 88 % 0.00 in /  0 mm
05:36 29.7 °F /  -1.3 °C 26.6 °F /  -3 °C 30.47 in /  1031.7 hPa Calm     88 % 0.00 in /  0 mm
05:41 29.8 °F /  -1.2 °C 27.0 °F /  -2.8 °C 30.47 in /  1031.7 hPa West 0.1 mph /  0.2 km/h 1.2 mph /  1.9 km/h 89 % 0.00 in /  0 mm
05:46 30.0 °F /  -1.1 °C 27.2 °F /  -2.7 °C 30.47 in /  1031.7 hPa West 0.6 mph /  1 km/h 1.2 mph /  1.9 km/h 89 % 0.00 in /  0 mm
05:51 30.1 °F /  -1.1 °C 27.3 °F /  -2.6 °C 30.47 in /  1031.7 hPa West 0.3 mph /  0.5 km/h 2.3 mph /  3.7 km/h 89 % 0.00 in /  0 mm
05:56 30.3 °F /  -0.9 °C 27.7 °F /  -2.4 °C 30.47 in /  1031.7 hPa West 0.8 mph /  1.3 km/h 2.3 mph /  3.7 km/h 90 % 0.00 in /  0 mm
06:02 30.5 °F /  -0.8 °C 27.9 °F /  -2.3 °C 30.47 in /  1031.7 hPa West 0.1 mph /  0.2 km/h 1.2 mph /  1.9 km/h 90 % 0.00 in /  0 mm
06:04 30.5 °F /  -0.8 °C 27.9 °F /  -2.3 °C 30.48 in /  1032.1 hPa Calm   1.2 mph /  1.9 km/h 90 % 0.00 in /  0 mm
06:09 30.6 °F /  -0.8 °C 27.7 °F /  -2.4 °C 30.47 in /  1031.7 hPa Calm     89 % 0.00 in /  0 mm
06:14 30.6 °F /  -0.8 °C 27.7 °F /  -2.4 °C 30.47 in /  1031.7 hPa Calm     89 % 0.00 in /  0 mm
06:19 30.7 °F /  -0.7 °C 27.8 °F /  -2.3 °C 30.47 in /  1031.7 hPa Calm   1.0 mph /  1.6 km/h 89 % 0.00 in /  0 mm
06:24 30.7 °F /  -0.7 °C 27.8 °F /  -2.3 °C 30.48 in /  1032.1 hPa West 2.1 mph /  3.4 km/h 3.5 mph /  5.6 km/h 89 % 0.00 in /  0 mm
06:29 30.7 °F /  -0.7 °C 27.8 °F /  -2.3 °C 30.48 in /  1032.1 hPa Calm     89 % 0.00 in /  0 mm
06:34 30.7 °F /  -0.7 °C 27.6 °F /  -2.4 °C 30.48 in /  1032.1 hPa Calm     88 % 0.00 in /  0 mm
06:39 30.7 °F /  -0.7 °C 27.6 °F /  -2.4 °C 30.48 in /  1032.1 hPa Calm     88 % 0.00 in /  0 mm
06:44 30.7 °F /  -0.7 °C 27.6 °F /  -2.4 °C 30.47 in /  1031.7 hPa West 0.4 mph /  0.6 km/h 1.2 mph /  1.9 km/h 88 % 0.00 in /  0 mm
06:49 30.7 °F /  -0.7 °C 27.6 °F /  -2.4 °C 30.47 in /  1031.7 hPa West 0.9 mph /  1.4 km/h 2.3 mph /  3.7 km/h 88 % 0.00 in /  0 mm
06:54 30.8 °F /  -0.7 °C 27.7 °F /  -2.4 °C 30.47 in /  1031.7 hPa Calm     88 % 0.00 in /  0 mm
06:59 30.7 °F /  -0.7 °C 27.6 °F /  -2.4 °C 30.47 in /  1031.7 hPa West 0.3 mph /  0.5 km/h 1.2 mph /  1.9 km/h 88 % 0.00 in /  0 mm
07:05 30.7 °F /  -0.7 °C 27.6 °F /  -2.4 °C 30.48 in /  1032.1 hPa Calm   1.2 mph /  1.9 km/h 88 % 0.00 in /  0 mm
07:10 30.8 °F /  -0.7 °C 27.4 °F /  -2.6 °C 30.48 in /  1032.1 hPa West 1.0 mph /  1.6 km/h 2.3 mph /  3.7 km/h 87 % 0.00 in /  0 mm
07:15 30.8 °F /  -0.7 °C 27.7 °F /  -2.4 °C 30.47 in /  1031.7 hPa West 1.2 mph /  1.9 km/h 2.3 mph /  3.7 km/h 88 % 0.00 in /  0 mm
07:20 30.9 °F /  -0.6 °C 27.8 °F /  -2.3 °C 30.48 in /  1032.1 hPa Calm   1.2 mph /  1.9 km/h 88 % 0.00 in /  0 mm
07:25 31.0 °F /  -0.6 °C 27.9 °F /  -2.3 °C 30.48 in /  1032.1 hPa Calm     88 % 0.00 in /  0 mm
07:30 31.1 °F /  -0.5 °C 28.0 °F /  -2.2 °C 30.48 in /  1032.1 hPa Calm     88 % 0.00 in /  0 mm
07:35 31.3 °F /  -0.4 °C 28.2 °F /  -2.1 °C 30.48 in /  1032.1 hPa Calm     88 % 0.00 in /  0 mm
07:40 31.4 °F /  -0.3 °C 28.5 °F /  -1.9 °C 30.48 in /  1032.1 hPa Calm     89 % 0.00 in /  0 mm
07:45 31.6 °F /  -0.2 °C 28.7 °F /  -1.8 °C 30.48 in /  1032.1 hPa Calm     89 % 0.00 in /  0 mm
07:50 31.9 °F /  -0.1 °C 29.3 °F /  -1.5 °C 30.48 in /  1032.1 hPa West 1.2 mph /  1.9 km/h 3.5 mph /  5.6 km/h 90 % 0.00 in /  0 mm
07:55 32.2 °F /  0.1 °C 29.6 °F /  -1.3 °C 30.47 in /  1031.7 hPa Calm     90 % 0.00 in /  0 mm
08:00 32.5 °F /  0.3 °C 30.2 °F /  -1 °C 30.48 in /  1032.1 hPa Calm     91 % 0.00 in /  0 mm
08:05 32.9 °F /  0.5 °C 30.6 °F /  -0.8 °C 30.48 in /  1032.1 hPa West 0.9 mph /  1.4 km/h 2.3 mph /  3.7 km/h 91 % 0.00 in /  0 mm
08:10 33.3 °F /  0.7 °C 31.0 °F /  -0.6 °C 30.48 in /  1032.1 hPa Calm     91 % 0.00 in /  0 mm
08:15 33.8 °F /  1 °C 31.5 °F /  -0.3 °C 30.48 in /  1032.1 hPa Calm   1.2 mph /  1.9 km/h 91 % 0.00 in /  0 mm
08:20 34.2 °F /  1.2 °C 31.8 °F /  -0.1 °C 30.48 in /  1032.1 hPa Calm     91 % 0.00 in /  0 mm
08:25 34.7 °F /  1.5 °C 32.3 °F /  0.2 °C 30.48 in /  1032.1 hPa Calm     91 % 0.00 in /  0 mm
08:30 35.0 °F /  1.7 °C 32.4 °F /  0.2 °C 30.48 in /  1032.1 hPa Calm     90 % 0.00 in /  0 mm
08:35 35.5 °F /  1.9 °C 32.6 °F /  0.3 °C 30.48 in /  1032.1 hPa Calm   1.0 mph /  1.6 km/h 89 % 0.00 in /  0 mm
08:40 35.9 °F /  2.2 °C 32.1 °F /  0.1 °C 30.48 in /  1032.1 hPa Calm   1.0 mph /  1.6 km/h 86 % 0.00 in /  0 mm
08:45 36.4 °F /  2.4 °C 31.7 °F /  -0.2 °C 30.48 in /  1032.1 hPa Calm   1.0 mph /  1.6 km/h 83 % 0.00 in /  0 mm
08:51 36.8 °F /  2.7 °C 31.2 °F /  -0.4 °C 30.48 in /  1032.1 hPa Calm   2.0 mph /  3.2 km/h 80 % 0.00 in /  0 mm
08:55 37.2 °F /  2.9 °C 30.7 °F /  -0.7 °C 30.48 in /  1032.1 hPa WSW 1.0 mph /  1.6 km/h 2.0 mph /  3.2 km/h 77 % 0.00 in /  0 mm
09:00 37.7 °F /  3.2 °C 29.5 °F /  -1.4 °C 30.48 in /  1032.1 hPa WSW 0.2 mph /  0.3 km/h 2.0 mph /  3.2 km/h 72 % 0.00 in /  0 mm
09:05 38.2 °F /  3.4 °C 29.3 °F /  -1.5 °C 30.47 in /  1031.7 hPa WSW 0.3 mph /  0.5 km/h 2.3 mph /  3.7 km/h 70 % 0.00 in /  0 mm
09:06 38.2 °F /  3.4 °C 29.3 °F /  -1.5 °C 30.47 in /  1031.7 hPa WSW 0.3 mph /  0.5 km/h 2.3 mph /  3.7 km/h 70 % 0.00 in /  0 mm
09:11 38.6 °F /  3.7 °C 28.9 °F /  -1.7 °C 30.47 in /  1031.7 hPa Calm   1.2 mph /  1.9 km/h 68 % 0.00 in /  0 mm
09:16 39.2 °F /  4 °C 28.4 °F /  -2 °C 30.47 in /  1031.7 hPa NW 0.8 mph /  1.3 km/h 2.3 mph /  3.7 km/h 65 % 0.00 in /  0 mm
09:21 39.7 °F /  4.3 °C 28.5 °F /  -1.9 °C 30.47 in /  1031.7 hPa Calm   2.3 mph /  3.7 km/h 64 % 0.00 in /  0 mm
09:26 40.2 °F /  4.6 °C 28.2 °F /  -2.1 °C 30.47 in /  1031.7 hPa West 1.6 mph /  2.6 km/h 2.3 mph /  3.7 km/h 62 % 0.00 in /  0 mm
09:31 40.7 °F /  4.8 °C 28.3 °F /  -2.1 °C 30.47 in /  1031.7 hPa Calm     61 % 0.00 in /  0 mm
09:36 41.4 °F /  5.2 °C 30.5 °F /  -0.8 °C 30.46 in /  1031.4 hPa Calm     65 % 0.00 in /  0 mm
09:41 42.0 °F /  5.6 °C 30.3 °F /  -0.9 °C 30.47 in /  1031.7 hPa Calm     63 % 0.00 in /  0 mm
09:46 42.4 °F /  5.8 °C 29.5 °F /  -1.4 °C 30.47 in /  1031.7 hPa West 0.3 mph /  0.5 km/h 2.3 mph /  3.7 km/h 60 % 0.00 in /  0 mm
09:51 42.8 °F /  6 °C 29.5 °F /  -1.4 °C 30.47 in /  1031.7 hPa WNW 1.9 mph /  3.1 km/h 4.6 mph /  7.4 km/h 59 % 0.00 in /  0 mm
09:56 43.1 °F /  6.2 °C 29.3 °F /  -1.5 °C 30.47 in /  1031.7 hPa WSW 0.7 mph /  1.1 km/h 2.3 mph /  3.7 km/h 58 % 0.00 in /  0 mm
10:01 43.4 °F /  6.3 °C 29.6 °F /  -1.3 °C 30.47 in /  1031.7 hPa WSW 0.2 mph /  0.3 km/h 1.2 mph /  1.9 km/h 58 % 0.00 in /  0 mm
10:06 43.7 °F /  6.5 °C 29.0 °F /  -1.7 °C 30.47 in /  1031.7 hPa WSW 0.3 mph /  0.5 km/h 3.5 mph /  5.6 km/h 56 % 0.00 in /  0 mm
10:11 44.0 °F /  6.7 °C 29.7 °F /  -1.3 °C 30.47 in /  1031.7 hPa SW 0.1 mph /  0.2 km/h 1.2 mph /  1.9 km/h 57 % 0.00 in /  0 mm
10:17 44.2 °F /  6.8 °C 29.5 °F /  -1.4 °C 30.47 in /  1031.7 hPa WSW 0.2 mph /  0.3 km/h 1.2 mph /  1.9 km/h 56 % 0.00 in /  0 mm
10:22 44.5 °F /  6.9 °C 29.3 °F /  -1.5 °C 30.47 in /  1031.7 hPa Calm   2.3 mph /  3.7 km/h 55 % 0.00 in /  0 mm
10:27 44.6 °F /  7 °C 29.9 °F /  -1.2 °C 30.47 in /  1031.7 hPa West 0.6 mph /  1 km/h 2.3 mph /  3.7 km/h 56 % 0.00 in /  0 mm
10:32 44.8 °F /  7.1 °C 29.6 °F /  -1.3 °C 30.47 in /  1031.7 hPa WNW 0.4 mph /  0.6 km/h 3.5 mph /  5.6 km/h 55 % 0.00 in /  0 mm
10:37 45.0 °F /  7.2 °C 29.8 °F /  -1.2 °C 30.46 in /  1031.4 hPa WNW 1.3 mph /  2.1 km/h 3.5 mph /  5.6 km/h 55 % 0.00 in /  0 mm
10:42 45.2 °F /  7.3 °C 30.0 °F /  -1.1 °C 30.47 in /  1031.7 hPa West 0.1 mph /  0.2 km/h 2.3 mph /  3.7 km/h 55 % 0.00 in /  0 mm
10:47 45.4 °F /  7.4 °C 30.6 °F /  -0.8 °C 30.46 in /  1031.4 hPa Calm     56 % 0.00 in /  0 mm
10:52 45.6 °F /  7.6 °C 30.3 °F /  -0.9 °C 30.46 in /  1031.4 hPa Calm   1.2 mph /  1.9 km/h 55 % 0.00 in /  0 mm
10:57 45.8 °F /  7.7 °C 30.1 °F /  -1.1 °C 30.46 in /  1031.4 hPa WSW 2.5 mph /  4 km/h 3.5 mph /  5.6 km/h 54 % 0.00 in /  0 mm
11:02 45.8 °F /  7.7 °C 30.5 °F /  -0.8 °C 30.46 in /  1031.4 hPa Calm     55 % 0.00 in /  0 mm
11:07 45.9 °F /  7.7 °C 30.2 °F /  -1 °C 30.45 in /  1031 hPa West 0.1 mph /  0.2 km/h 2.3 mph /  3.7 km/h 54 % 0.00 in /  0 mm
11:12 45.9 °F /  7.7 °C 30.6 °F /  -0.8 °C 30.44 in /  1030.7 hPa West 1.9 mph /  3.1 km/h 3.5 mph /  5.6 km/h 55 % 0.00 in /  0 mm
11:17 45.7 °F /  7.6 °C 30.0 °F /  -1.1 °C 30.45 in /  1031 hPa West 0.7 mph /  1.1 km/h 3.5 mph /  5.6 km/h 54 % 0.00 in /  0 mm
11:22 45.6 °F /  7.6 °C 29.9 °F /  -1.2 °C 30.45 in /  1031 hPa SSE 3.0 mph /  4.8 km/h 3.5 mph /  5.6 km/h 54 % 0.00 in /  0 mm
11:26 45.5 °F /  7.5 °C 29.3 °F /  -1.5 °C 30.44 in /  1030.7 hPa SSE 0.7 mph /  1.1 km/h 2.3 mph /  3.7 km/h 53 % 0.00 in /  0 mm
11:31 45.4 °F /  7.4 °C 29.7 °F /  -1.3 °C 30.44 in /  1030.7 hPa Calm   2.3 mph /  3.7 km/h 54 % 0.00 in /  0 mm
11:36 45.3 °F /  7.4 °C 30.5 °F /  -0.8 °C 30.44 in /  1030.7 hPa WNW 0.9 mph /  1.4 km/h 2.3 mph /  3.7 km/h 56 % 0.00 in /  0 mm
11:41 45.2 °F /  7.3 °C 30.0 °F /  -1.1 °C 30.43 in /  1030.4 hPa WNW 1.4 mph /  2.3 km/h 3.5 mph /  5.6 km/h 55 % 0.00 in /  0 mm
11:46 45.2 °F /  7.3 °C 30.4 °F /  -0.9 °C 30.43 in /  1030.4 hPa WNW 0.6 mph /  1 km/h 3.0 mph /  4.8 km/h 56 % 0.00 in /  0 mm
11:51 45.1 °F /  7.3 °C 30.3 °F /  -0.9 °C 30.43 in /  1030.4 hPa WNW 1.5 mph /  2.4 km/h 4.0 mph /  6.4 km/h 56 % 0.00 in /  0 mm
11:56 45.1 °F /  7.3 °C 30.8 °F /  -0.7 °C 30.43 in /  1030.4 hPa WNW 0.5 mph /  0.8 km/h 2.3 mph /  3.7 km/h 57 % 0.00 in /  0 mm
12:01 45.2 °F /  7.3 °C 30.4 °F /  -0.9 °C 30.43 in /  1030.4 hPa SW 0.5 mph /  0.8 km/h 3.5 mph /  5.6 km/h 56 % 0.00 in /  0 mm
12:06 45.2 °F /  7.3 °C 30.9 °F /  -0.6 °C 30.43 in /  1030.4 hPa Calm   2.3 mph /  3.7 km/h 57 % 0.00 in /  0 mm
12:11 45.2 °F /  7.3 °C 30.9 °F /  -0.6 °C 30.43 in /  1030.4 hPa WSW 1.1 mph /  1.8 km/h 5.0 mph /  8 km/h 57 % 0.00 in /  0 mm
12:16 45.2 °F /  7.3 °C 30.9 °F /  -0.6 °C 30.43 in /  1030.4 hPa SSW 0.9 mph /  1.4 km/h 3.5 mph /  5.6 km/h 57 % 0.00 in /  0 mm
12:21 45.3 °F /  7.4 °C 30.5 °F /  -0.8 °C 30.43 in /  1030.4 hPa WNW 1.3 mph /  2.1 km/h 3.5 mph /  5.6 km/h 56 % 0.00 in /  0 mm
12:26 45.4 °F /  7.4 °C 31.0 °F /  -0.6 °C 30.42 in /  1030 hPa West 1.0 mph /  1.6 km/h 3.0 mph /  4.8 km/h 57 % 0.00 in /  0 mm
12:32 45.4 °F /  7.4 °C 31.0 °F /  -0.6 °C 30.42 in /  1030 hPa NNW 2.7 mph /  4.3 km/h 3.5 mph /  5.6 km/h 57 % 0.00 in /  0 mm
12:37 45.4 °F /  7.4 °C 31.0 °F /  -0.6 °C 30.42 in /  1030 hPa WNW 1.5 mph /  2.4 km/h 8.1 mph /  13 km/h 57 % 0.00 in /  0 mm
12:42 45.4 °F /  7.4 °C 31.0 °F /  -0.6 °C 30.42 in /  1030 hPa West 3.0 mph /  4.8 km/h 6.9 mph /  11.1 km/h 57 % 0.00 in /  0 mm
12:47 45.5 °F /  7.5 °C 31.1 °F /  -0.5 °C 30.42 in /  1030 hPa WNW 1.8 mph /  2.9 km/h 4.6 mph /  7.4 km/h 57 % 0.00 in /  0 mm
12:52 45.6 °F /  7.6 °C 31.2 °F /  -0.4 °C 30.42 in /  1030 hPa NW 2.3 mph /  3.7 km/h 3.5 mph /  5.6 km/h 57 % 0.00 in /  0 mm
12:57 45.8 °F /  7.7 °C 31.4 °F /  -0.3 °C 30.42 in /  1030 hPa WNW 0.7 mph /  1.1 km/h 2.3 mph /  3.7 km/h 57 % 0.00 in /  0 mm
13:02 46.0 °F /  7.8 °C 31.6 °F /  -0.2 °C 30.41 in /  1029.7 hPa NW 2.4 mph /  3.9 km/h 4.6 mph /  7.4 km/h 57 % 0.00 in /  0 mm
13:07 46.3 °F /  7.9 °C 31.4 °F /  -0.3 °C 30.40 in /  1029.3 hPa WSW 1.6 mph /  2.6 km/h 3.5 mph /  5.6 km/h 56 % 0.00 in /  0 mm
13:12 46.7 °F /  8.2 °C 31.8 °F /  -0.1 °C 30.40 in /  1029.3 hPa West 3.0 mph /  4.8 km/h 3.5 mph /  5.6 km/h 56 % 0.00 in /  0 mm
13:17 47.2 °F /  8.4 °C 32.3 °F /  0.2 °C 30.40 in /  1029.3 hPa SW 3.6 mph /  5.8 km/h 5.0 mph /  8 km/h 56 % 0.00 in /  0 mm
13:21 47.7 °F /  8.7 °C 32.3 °F /  0.2 °C 30.40 in /  1029.3 hPa SW 1.1 mph /  1.8 km/h 5.8 mph /  9.3 km/h 55 % 0.00 in /  0 mm
13:26 48.1 °F /  8.9 °C 31.8 °F /  -0.1 °C 30.40 in /  1029.3 hPa WNW 4.3 mph /  6.9 km/h 6.9 mph /  11.1 km/h 53 % 0.00 in /  0 mm
13:31 48.5 °F /  9.2 °C 32.1 °F /  0.1 °C 30.39 in /  1029 hPa SW 1.6 mph /  2.6 km/h 3.5 mph /  5.6 km/h 53 % 0.00 in /  0 mm
13:37 48.7 °F /  9.3 °C 32.3 °F /  0.2 °C 30.40 in /  1029.3 hPa WNW 1.4 mph /  2.3 km/h 5.0 mph /  8 km/h 53 % 0.00 in /  0 mm
13:42 49.0 °F /  9.4 °C 33.1 °F /  0.6 °C 30.40 in /  1029.3 hPa NNW 0.9 mph /  1.4 km/h 1.2 mph /  1.9 km/h 54 % 0.00 in /  0 mm
13:47 49.2 °F /  9.6 °C 32.8 °F /  0.4 °C 30.39 in /  1029 hPa NW 1.6 mph /  2.6 km/h 4.6 mph /  7.4 km/h 53 % 0.00 in /  0 mm
13:52 49.3 °F /  9.6 °C 31.9 °F /  -0.1 °C 30.39 in /  1029 hPa WNW 2.0 mph /  3.2 km/h 6.9 mph /  11.1 km/h 51 % 0.00 in /  0 mm
13:57 49.4 °F /  9.7 °C 33.4 °F /  0.8 °C 30.39 in /  1029 hPa NNW 1.8 mph /  2.9 km/h 3.0 mph /  4.8 km/h 54 % 0.00 in /  0 mm
14:02 49.2 °F /  9.6 °C 32.8 °F /  0.4 °C 30.39 in /  1029 hPa WNW 2.0 mph /  3.2 km/h 3.5 mph /  5.6 km/h 53 % 0.00 in /  0 mm
14:07 49.1 °F /  9.5 °C 33.2 °F /  0.7 °C 30.39 in /  1029 hPa NNE 1.7 mph /  2.7 km/h 3.5 mph /  5.6 km/h 54 % 0.00 in /  0 mm
14:12 48.8 °F /  9.3 °C 32.4 °F /  0.2 °C 30.39 in /  1029 hPa West 2.1 mph /  3.4 km/h 5.8 mph /  9.3 km/h 53 % 0.00 in /  0 mm
14:17 48.5 °F /  9.2 °C 33.1 °F /  0.6 °C 30.39 in /  1029 hPa NE 2.1 mph /  3.4 km/h 4.6 mph /  7.4 km/h 55 % 0.00 in /  0 mm
14:22 48.2 °F /  9 °C 33.2 °F /  0.7 °C 30.39 in /  1029 hPa NNW 1.1 mph /  1.8 km/h 3.5 mph /  5.6 km/h 56 % 0.00 in /  0 mm
14:27 47.8 °F /  8.8 °C 32.9 °F /  0.5 °C 30.39 in /  1029 hPa NE 3.6 mph /  5.8 km/h 4.6 mph /  7.4 km/h 56 % 0.00 in /  0 mm
14:32 47.5 °F /  8.6 °C 33.0 °F /  0.6 °C 30.39 in /  1029 hPa NW 1.9 mph /  3.1 km/h 3.5 mph /  5.6 km/h 57 % 0.00 in /  0 mm
14:37 47.3 °F /  8.5 °C 32.8 °F /  0.4 °C 30.39 in /  1029 hPa NW 1.1 mph /  1.8 km/h 3.5 mph /  5.6 km/h 57 % 0.00 in /  0 mm
14:42 47.1 °F /  8.4 °C 33.1 °F /  0.6 °C 30.39 in /  1029 hPa WNW 0.4 mph /  0.6 km/h 4.0 mph /  6.4 km/h 58 % 0.00 in /  0 mm
14:47 46.9 °F /  8.3 °C 32.9 °F /  0.5 °C 30.39 in /  1029 hPa North 1.2 mph /  1.9 km/h 3.5 mph /  5.6 km/h 58 % 0.00 in /  0 mm
14:52 46.7 °F /  8.2 °C 33.1 °F /  0.6 °C 30.39 in /  1029 hPa NW 1.6 mph /  2.6 km/h 4.6 mph /  7.4 km/h 59 % 0.00 in /  0 mm
14:57 46.5 °F /  8.1 °C 32.5 °F /  0.3 °C 30.39 in /  1029 hPa NNW 0.2 mph /  0.3 km/h 3.5 mph /  5.6 km/h 58 % 0.00 in /  0 mm
15:02 46.4 °F /  8 °C 32.8 °F /  0.4 °C 30.38 in /  1028.7 hPa NNW 1.3 mph /  2.1 km/h 3.0 mph /  4.8 km/h 59 % 0.00 in /  0 mm
15:07 46.3 °F /  7.9 °C 32.7 °F /  0.4 °C 30.39 in /  1029 hPa NNW 1.7 mph /  2.7 km/h 3.5 mph /  5.6 km/h 59 % 0.00 in /  0 mm
15:12 46.2 °F /  7.9 °C 32.7 °F /  0.4 °C 30.39 in /  1029 hPa NW 0.1 mph /  0.2 km/h 2.3 mph /  3.7 km/h 59 % 0.00 in /  0 mm
15:17 46.1 °F /  7.8 °C 32.6 °F /  0.3 °C 30.39 in /  1029 hPa WNW 1.8 mph /  2.9 km/h 3.5 mph /  5.6 km/h 59 % 0.00 in /  0 mm
15:22 46.0 °F /  7.8 °C 32.5 °F /  0.3 °C 30.39 in /  1029 hPa Calm     59 % 0.00 in /  0 mm
15:27 45.9 °F /  7.7 °C 32.4 °F /  0.2 °C 30.39 in /  1029 hPa WNW 0.2 mph /  0.3 km/h 2.3 mph /  3.7 km/h 59 % 0.00 in /  0 mm
15:32 45.8 °F /  7.7 °C 32.3 °F /  0.2 °C 30.39 in /  1029 hPa Calm     59 % 0.00 in /  0 mm
15:37 45.7 °F /  7.6 °C 32.2 °F /  0.1 °C 30.39 in /  1029 hPa Calm     59 % 0.00 in /  0 mm
15:42 45.6 °F /  7.6 °C 32.1 °F /  0.1 °C 30.38 in /  1028.7 hPa WNW 1.3 mph /  2.1 km/h 3.5 mph /  5.6 km/h 59 % 0.00 in /  0 mm
15:47 45.5 °F /  7.5 °C 32.4 °F /  0.2 °C 30.38 in /  1028.7 hPa Calm     60 % 0.00 in /  0 mm
15:52 45.4 °F /  7.4 °C 32.3 °F /  0.2 °C 30.39 in /  1029 hPa Calm     60 % 0.00 in /  0 mm
15:57 45.4 °F /  7.4 °C 32.7 °F /  0.4 °C 30.38 in /  1028.7 hPa SW 0.1 mph /  0.2 km/h 1.2 mph /  1.9 km/h 61 % 0.00 in /  0 mm
16:02 45.3 °F /  7.4 °C 32.6 °F /  0.3 °C 30.38 in /  1028.7 hPa Calm     61 % 0.00 in /  0 mm
16:07 45.2 °F /  7.3 °C 32.5 °F /  0.3 °C 30.38 in /  1028.7 hPa Calm     61 % 0.00 in /  0 mm
16:13 45.1 °F /  7.3 °C 32.8 °F /  0.4 °C 30.39 in /  1029 hPa Calm   1.2 mph /  1.9 km/h 62 % 0.00 in /  0 mm
16:18 44.9 °F /  7.2 °C 32.7 °F /  0.4 °C 30.39 in /  1029 hPa West 0.9 mph /  1.4 km/h 5.8 mph /  9.3 km/h 62 % 0.00 in /  0 mm
16:23 44.7 °F /  7.1 °C 32.5 °F /  0.3 °C 30.39 in /  1029 hPa WSW 0.9 mph /  1.4 km/h 3.5 mph /  5.6 km/h 62 % 0.00 in /  0 mm
16:28 44.6 °F /  7 °C 32.4 °F /  0.2 °C 30.39 in /  1029 hPa Calm     62 % 0.00 in /  0 mm
16:33 44.5 °F /  6.9 °C 32.7 °F /  0.4 °C 30.39 in /  1029 hPa Calm     63 % 0.00 in /  0 mm
16:38 44.3 °F /  6.8 °C 32.5 °F /  0.3 °C 30.39 in /  1029 hPa SW 0.7 mph /  1.1 km/h 2.3 mph /  3.7 km/h 63 % 0.00 in /  0 mm
16:43 44.2 °F /  6.8 °C 32.8 °F /  0.4 °C 30.39 in /  1029 hPa Calm   2.3 mph /  3.7 km/h 64 % 0.00 in /  0 mm
16:48 44.0 °F /  6.7 °C 32.6 °F /  0.3 °C 30.39 in /  1029 hPa Calm   1.2 mph /  1.9 km/h 64 % 0.00 in /  0 mm
16:53 43.8 °F /  6.6 °C 32.4 °F /  0.2 °C 30.39 in /  1029 hPa Calm     64 % 0.00 in /  0 mm
16:58 43.6 °F /  6.4 °C 32.6 °F /  0.3 °C 30.39 in /  1029 hPa Calm     65 % 0.00 in /  0 mm
17:03 43.3 °F /  6.3 °C 32.7 °F /  0.4 °C 30.39 in /  1029 hPa Calm     66 % 0.00 in /  0 mm
17:08 43.0 °F /  6.1 °C 32.4 °F /  0.2 °C 30.39 in /  1029 hPa Calm     66 % 0.00 in /  0 mm
17:13 42.7 °F /  5.9 °C 32.5 °F /  0.3 °C 30.39 in /  1029 hPa Calm     67 % 0.00 in /  0 mm
17:18 42.5 °F /  5.8 °C 32.7 °F /  0.4 °C 30.39 in /  1029 hPa Calm     68 % 0.00 in /  0 mm
17:23 42.2 °F /  5.7 °C 32.8 °F /  0.4 °C 30.39 in /  1029 hPa Calm     69 % 0.00 in /  0 mm
17:28 41.8 °F /  5.4 °C 32.4 °F /  0.2 °C 30.39 in /  1029 hPa Calm     69 % 0.00 in /  0 mm
17:33 41.5 °F /  5.3 °C 32.4 °F /  0.2 °C 30.39 in /  1029 hPa Calm     70 % 0.00 in /  0 mm
17:38 41.3 °F /  5.2 °C 32.2 °F /  0.1 °C 30.40 in /  1029.3 hPa Calm     70 % 0.00 in /  0 mm
17:43 40.9 °F /  4.9 °C 31.9 °F /  -0.1 °C 30.40 in /  1029.3 hPa Calm     70 % 0.00 in /  0 mm
17:48 40.6 °F /  4.8 °C 31.9 °F /  -0.1 °C 30.40 in /  1029.3 hPa Calm     71 % 0.00 in /  0 mm
17:53 40.3 °F /  4.6 °C 32.0 °F /  0 °C 30.39 in /  1029 hPa Calm     72 % 0.00 in /  0 mm
17:58 40.0 °F /  4.4 °C 32.0 °F /  0 °C 30.39 in /  1029 hPa Calm     73 % 0.00 in /  0 mm
18:03 39.8 °F /  4.3 °C 31.8 °F /  -0.1 °C 30.39 in /  1029 hPa Calm     73 % 0.00 in /  0 mm
18:08 39.5 °F /  4.2 °C 31.6 °F /  -0.2 °C 30.39 in /  1029 hPa Calm     73 % 0.00 in /  0 mm
18:13 39.3 °F /  4.1 °C 31.7 °F /  -0.2 °C 30.38 in /  1028.7 hPa Calm     74 % 0.00 in /  0 mm
18:18 39.0 °F /  3.9 °C 31.7 °F /  -0.2 °C 30.39 in /  1029 hPa Calm     75 % 0.00 in /  0 mm
18:24 38.8 °F /  3.8 °C 31.6 °F /  -0.2 °C 30.39 in /  1029 hPa Calm     75 % 0.00 in /  0 mm
18:28 38.6 °F /  3.7 °C 31.7 °F /  -0.2 °C 30.40 in /  1029.3 hPa SW 0.6 mph /  1 km/h 1.2 mph /  1.9 km/h 76 % 0.00 in /  0 mm
18:34 38.4 °F /  3.6 °C 31.5 °F /  -0.3 °C 30.39 in /  1029 hPa SW 0.3 mph /  0.5 km/h 2.3 mph /  3.7 km/h 76 % 0.00 in /  0 mm
18:39 38.2 °F /  3.4 °C 31.6 °F /  -0.2 °C 30.39 in /  1029 hPa Calm     77 % 0.00 in /  0 mm
18:44 38.1 °F /  3.4 °C 31.5 °F /  -0.3 °C 30.39 in /  1029 hPa SW 0.1 mph /  0.2 km/h 1.2 mph /  1.9 km/h 77 % 0.00 in /  0 mm
18:49 38.0 °F /  3.3 °C 31.4 °F /  -0.3 °C 30.39 in /  1029 hPa Calm     77 % 0.00 in /  0 mm
18:54 37.9 °F /  3.3 °C 31.3 °F /  -0.4 °C 30.39 in /  1029 hPa Calm   1.2 mph /  1.9 km/h 77 % 0.00 in /  0 mm
18:59 37.8 °F /  3.2 °C 31.6 °F /  -0.2 °C 30.39 in /  1029 hPa Calm     78 % 0.00 in /  0 mm
19:04 37.8 °F /  3.2 °C 31.6 °F /  -0.2 °C 30.39 in /  1029 hPa Calm     78 % 0.00 in /  0 mm
19:09 37.7 °F /  3.2 °C 31.8 °F /  -0.1 °C 30.39 in /  1029 hPa Calm     79 % 0.00 in /  0 mm
19:14 37.7 °F /  3.2 °C 31.5 °F /  -0.3 °C 30.39 in /  1029 hPa Calm     78 % 0.00 in /  0 mm
19:19 37.7 °F /  3.2 °C 31.8 °F /  -0.1 °C 30.39 in /  1029 hPa Calm     79 % 0.00 in /  0 mm
19:24 37.6 °F /  3.1 °C 31.7 °F /  -0.2 °C 30.39 in /  1029 hPa Calm     79 % 0.00 in /  0 mm
19:29 37.6 °F /  3.1 °C 32.0 °F /  0 °C 30.39 in /  1029 hPa Calm     80 % 0.00 in /  0 mm
19:34 37.5 °F /  3.1 °C 31.9 °F /  -0.1 °C 30.38 in /  1028.7 hPa Calm     80 % 0.00 in /  0 mm
19:39 37.5 °F /  3.1 °C 31.9 °F /  -0.1 °C 30.38 in /  1028.7 hPa Calm     80 % 0.00 in /  0 mm
19:44 37.5 °F /  3.1 °C 31.9 °F /  -0.1 °C 30.38 in /  1028.7 hPa SW 0.5 mph /  0.8 km/h 2.3 mph /  3.7 km/h 80 % 0.00 in /  0 mm
19:49 37.6 °F /  3.1 °C 32.0 °F /  0 °C 30.38 in /  1028.7 hPa SW 0.1 mph /  0.2 km/h 1.2 mph /  1.9 km/h 80 % 0.00 in /  0 mm
19:54 37.5 °F /  3.1 °C 31.9 °F /  -0.1 °C 30.38 in /  1028.7 hPa Calm     80 % 0.00 in /  0 mm
19:59 37.6 °F /  3.1 °C 32.3 °F /  0.2 °C 30.38 in /  1028.7 hPa Calm     81 % 0.00 in /  0 mm
20:04 37.6 °F /  3.1 °C 32.0 °F /  0 °C 30.38 in /  1028.7 hPa Calm     80 % 0.00 in /  0 mm
20:09 37.6 °F /  3.1 °C 32.0 °F /  0 °C 30.38 in /  1028.7 hPa SW 0.2 mph /  0.3 km/h 1.2 mph /  1.9 km/h 80 % 0.00 in /  0 mm
20:14 37.6 °F /  3.1 °C 32.0 °F /  0 °C 30.38 in /  1028.7 hPa Calm     80 % 0.00 in /  0 mm
20:19 37.7 °F /  3.2 °C 32.1 °F /  0.1 °C 30.39 in /  1029 hPa Calm     80 % 0.00 in /  0 mm
20:24 37.6 °F /  3.1 °C 32.0 °F /  0 °C 30.39 in /  1029 hPa Calm     80 % 0.00 in /  0 mm
20:29 37.6 °F /  3.1 °C 32.0 °F /  0 °C 30.39 in /  1029 hPa Calm     80 % 0.00 in /  0 mm
20:34 37.5 °F /  3.1 °C 31.9 °F /  -0.1 °C 30.39 in /  1029 hPa SW 0.2 mph /  0.3 km/h 1.2 mph /  1.9 km/h 80 % 0.00 in /  0 mm
20:39 37.5 °F /  3.1 °C 31.9 °F /  -0.1 °C 30.39 in /  1029 hPa Calm     80 % 0.00 in /  0 mm
20:44 37.4 °F /  3 °C 31.8 °F /  -0.1 °C 30.39 in /  1029 hPa Calm     80 % 0.00 in /  0 mm
20:49 37.3 °F /  2.9 °C 31.7 °F /  -0.2 °C 30.39 in /  1029 hPa Calm     80 % 0.00 in /  0 mm
20:54 37.2 °F /  2.9 °C 31.6 °F /  -0.2 °C 30.39 in /  1029 hPa Calm     80 % 0.00 in /  0 mm
20:59 37.1 °F /  2.8 °C 31.5 °F /  -0.3 °C 30.39 in /  1029 hPa Calm     80 % 0.00 in /  0 mm
21:04 36.9 °F /  2.7 °C 31.3 °F /  -0.4 °C 30.39 in /  1029 hPa Calm     80 % 0.00 in /  0 mm
21:09 36.8 °F /  2.7 °C 31.2 °F /  -0.4 °C 30.39 in /  1029 hPa Calm   1.2 mph /  1.9 km/h 80 % 0.00 in /  0 mm
21:14 36.7 °F /  2.6 °C 31.4 °F /  -0.3 °C 30.40 in /  1029.3 hPa Calm     81 % 0.00 in /  0 mm
21:19 36.6 °F /  2.6 °C 31.3 °F /  -0.4 °C 30.40 in /  1029.3 hPa Calm     81 % 0.00 in /  0 mm
21:24 36.5 °F /  2.5 °C 31.2 °F /  -0.4 °C 30.39 in /  1029 hPa SW 0.2 mph /  0.3 km/h 1.0 mph /  1.6 km/h 81 % 0.00 in /  0 mm
21:28 36.4 °F /  2.4 °C 31.4 °F /  -0.3 °C 30.39 in /  1029 hPa SW 0.2 mph /  0.3 km/h 1.2 mph /  1.9 km/h 82 % 0.00 in /  0 mm
21:33 36.4 °F /  2.4 °C 31.4 °F /  -0.3 °C 30.40 in /  1029.3 hPa Calm     82 % 0.00 in /  0 mm
21:38 36.3 °F /  2.4 °C 31.3 °F /  -0.4 °C 30.40 in /  1029.3 hPa Calm     82 % 0.00 in /  0 mm
21:43 36.2 °F /  2.3 °C 31.2 °F /  -0.4 °C 30.41 in /  1029.7 hPa Calm     82 % 0.00 in /  0 mm
21:48 36.2 °F /  2.3 °C 31.5 °F /  -0.3 °C 30.40 in /  1029.3 hPa SW 0.1 mph /  0.2 km/h 1.2 mph /  1.9 km/h 83 % 0.00 in /  0 mm
21:53 36.1 °F /  2.3 °C 31.4 °F /  -0.3 °C 30.40 in /  1029.3 hPa Calm     83 % 0.00 in /  0 mm
21:58 36.1 °F /  2.3 °C 31.4 °F /  -0.3 °C 30.39 in /  1029 hPa Calm     83 % 0.00 in /  0 mm
22:03 36.1 °F /  2.3 °C 31.4 °F /  -0.3 °C 30.40 in /  1029.3 hPa SW 0.5 mph /  0.8 km/h 1.2 mph /  1.9 km/h 83 % 0.00 in /  0 mm
22:08 36.0 °F /  2.2 °C 31.3 °F /  -0.4 °C 30.40 in /  1029.3 hPa Calm   1.2 mph /  1.9 km/h 83 % 0.00 in /  0 mm
22:14 36.0 °F /  2.2 °C 31.3 °F /  -0.4 °C 30.40 in /  1029.3 hPa Calm   2.3 mph /  3.7 km/h 83 % 0.00 in /  0 mm
22:19 36.0 °F /  2.2 °C 31.6 °F /  -0.2 °C 30.40 in /  1029.3 hPa SW 0.5 mph /  0.8 km/h 1.2 mph /  1.9 km/h 84 % 0.00 in /  0 mm
22:21 36.0 °F /  2.2 °C 31.6 °F /  -0.2 °C 30.18 in /  1021.9 hPa SW 0.2 mph /  0.3 km/h 1.2 mph /  1.9 km/h 84 % 0.00 in /  0 mm
22:24 36.0 °F /  2.2 °C 31.6 °F /  -0.2 °C 30.17 in /  1021.6 hPa Calm     84 % 0.00 in /  0 mm
22:25 36.1 °F /  2.3 °C 31.7 °F /  -0.2 °C 30.39 in /  1029 hPa Calm     84 % 0.00 in /  0 mm
22:30 36.1 °F /  2.3 °C 31.7 °F /  -0.2 °C 30.39 in /  1029 hPa Calm     84 % 0.00 in /  0 mm
22:35 36.1 °F /  2.3 °C 31.7 °F /  -0.2 °C 30.39 in /  1029 hPa Calm     84 % 0.00 in /  0 mm
22:40 36.1 °F /  2.3 °C 31.7 °F /  -0.2 °C 30.39 in /  1029 hPa Calm     84 % 0.00 in /  0 mm
22:45 36.2 °F /  2.3 °C 32.1 °F /  0.1 °C 30.38 in /  1028.7 hPa Calm     85 % 0.00 in /  0 mm
22:50 36.2 °F /  2.3 °C 32.1 °F /  0.1 °C 30.38 in /  1028.7 hPa Calm     85 % 0.00 in /  0 mm
22:55 36.3 °F /  2.4 °C 32.2 °F /  0.1 °C 30.39 in /  1029 hPa Calm   1.2 mph /  1.9 km/h 85 % 0.00 in /  0 mm
23:00 36.3 °F /  2.4 °C 32.2 °F /  0.1 °C 30.39 in /  1029 hPa Calm     85 % 0.00 in /  0 mm
23:05 36.4 °F /  2.4 °C 32.3 °F /  0.2 °C 30.39 in /  1029 hPa Calm     85 % 0.00 in /  0 mm
23:10 36.5 °F /  2.5 °C 32.4 °F /  0.2 °C 30.39 in /  1029 hPa Calm     85 % 0.00 in /  0 mm
23:15 36.5 °F /  2.5 °C 32.4 °F /  0.2 °C 30.38 in /  1028.7 hPa Calm     85 % 0.00 in /  0 mm
23:20 36.6 °F /  2.6 °C 32.2 °F /  0.1 °C 30.38 in /  1028.7 hPa Calm     84 % 0.00 in /  0 mm
23:25 36.7 °F /  2.6 °C 32.6 °F /  0.3 °C 30.38 in /  1028.7 hPa Calm     85 % 0.00 in /  0 mm
23:30 36.8 °F /  2.7 °C 32.7 °F /  0.4 °C 30.38 in /  1028.7 hPa Calm     85 % 0.00 in /  0 mm
23:35 36.9 °F /  2.7 °C 32.8 °F /  0.4 °C 30.38 in /  1028.7 hPa Calm     85 % 0.00 in /  0 mm
23:41 36.9 °F /  2.7 °C 32.8 °F /  0.4 °C 30.38 in /  1028.7 hPa Calm     85 % 0.00 in /  0 mm
23:46 37.0 °F /  2.8 °C 32.9 °F /  0.5 °C 30.37 in /  1028.3 hPa Calm     85 % 0.00 in /  0 mm
23:51 37.0 °F /  2.8 °C 32.9 °F /  0.5 °C 30.37 in /  1028.3 hPa Calm     85 % 0.00 in /  0 mm
23:56 37.1 °F /  2.8 °C 33.0 °F /  0.6 °C 30.38 in /  1028.7 hPa SW 0.6 mph /  1 km/h 1.2 mph /  1.9 km/h 85 % 0.00 in /  0 mm
Crab Meadow Weather
Compliments of Weather Underground - 3 mb

Script developed by  Jim McMurry - jmcmurry@mwt.net Adapted for the template by  Wim van der Kuil - Leuven-Template.eu

Astronomy: A year on Venus is 225 days.